Vorticity
5 9 13 16 19 20 20 26 25 21 20 21 23 24 25 27 26 27 20 16 24 -7
11 14 17 19 18 20 24 22 21 19 22 24 24 24 25 25 27 29 24 19 20 21
15 16 16 15 17 19 19 18 19 21 23 22 21 22 20 22 26 28 29 26 18 39
15 16 13 15 16 17 16 19 19 20 21 21 20 23 20 17 20 29 29 28 29 37
15 13 13 15 16 15 16 18 18 19 22 21 21 19 19 15 14 26 30 32 30 30
13 12 13 13 14 14 15 17 16 16 22 21 21 17 17 14 9 12 31 39 36 39
12 11 11 10 10 12 15 16 15 13 20 22 19 16 19 17 3 10 19 37 49 31
9 10 10 10 8 6 11 15 15 11 15 25 17 17 23 15 7 10 11 31 48 35
8 8 10 8 9 7 5 10 12 13 13 24 17 18 21 18 17 11 6 26 37 46
8 8 9 9 9 8 6 6 10 13 12 16 21 18 16 19 17 14 7 26 37 61
9 8 10 9 8 9 7 8 6 11 9 9 24 17 16 19 16 14 7 30 29 50
9 9 11 12 9 10 9 10 6 9 12 11 17 21 16 17 17 11 17 24 19 52
11 13 13 12 11 11 12 12 7 11 14 9 10 25 18 14 11 3 28 16 16 38
10 11 12 12 13 14 13 8 10 13 13 9 10 19 21 13 16 4 29 18 21 33
Height
5578 5570 5562 5555 5547 5538 5531 5524 5517 5510 5504 5500 5499 5499 5500 5505 5512 5523 5533 5547 5563 5581
5555 5546 5538 5530 5523 5515 5507 5501 5495 5487 5481 5476 5474 5473 5475 5478 5483 5493 5505 5518 5537 5557
5533 5524 5517 5510 5503 5494 5486 5480 5473 5466 5460 5457 5454 5453 5454 5456 5459 5467 5478 5490 5508 5534
5512 5503 5497 5491 5483 5476 5469 5462 5455 5449 5444 5440 5438 5436 5437 5438 5441 5445 5454 5466 5481 5505
5494 5486 5479 5472 5465 5459 5453 5445 5439 5434 5428 5425 5422 5421 5421 5423 5425 5428 5434 5445 5460 5480
5477 5470 5464 5456 5450 5443 5437 5431 5425 5419 5414 5410 5407 5406 5406 5408 5411 5413 5417 5425 5438 5457
5462 5456 5450 5443 5437 5430 5423 5418 5413 5406 5401 5396 5394 5392 5392 5393 5396 5400 5403 5407 5418 5435
5446 5441 5435 5429 5424 5418 5411 5404 5400 5395 5389 5384 5380 5378 5378 5378 5382 5386 5389 5393 5400 5417
5431 5426 5420 5415 5410 5404 5399 5392 5386 5381 5377 5372 5368 5365 5363 5364 5368 5373 5375 5378 5384 5397
5414 5410 5404 5400 5395 5389 5385 5380 5374 5369 5364 5360 5355 5352 5351 5350 5354 5359 5362 5364 5369 5379
5397 5393 5388 5384 5379 5374 5370 5366 5362 5357 5352 5349 5343 5340 5338 5338 5341 5345 5348 5349 5355 5365
5377 5375 5371 5367 5362 5357 5354 5351 5347 5343 5340 5336 5332 5328 5326 5325 5328 5332 5334 5337 5341 5349
5358 5355 5352 5348 5344 5340 5336 5335 5333 5330 5326 5322 5320 5316 5314 5313 5316 5320 5321 5324 5328 5335
5339 5335 5332 5330 5325 5322 5320 5318 5316 5315 5313 5310 5306 5304 5302 5302 5303 5306 5308 5313 5317 5322